Location: Newark
(49.8969°N, 3.3422°E)
Time: 19:43:19
(UTC+00:00)

A-11 Canister half - Pass Details

Date: 24 January 2020
Orbit: 1517 x 1683 km, 47.2° (Epoch: 26 February)

Event Time Altitude Azimuth Distance (km) Brightness Sun altitude
Exits shadow 05:24:20 29° 266° (W) 2,524 9.5 -20.1°
Maximum altitude 05:28:49 47° 211° (SSW) 1,928 9.3 -19.4°
Drops below altitude 10° 05:37:36 10° 141° (SE) 3,721 11.7 -18.0°
Sets 05:40:49 0° 136° (SE) 4,721 12.4 -17.5°
